Location: Dead Woman Crossing
(43.5369°N, 106.3228°W)
Time: 23:03:48
(UTC+00:00)

NANOSAT C BR1 - Pass Details

Date: 03 July 2022
Orbit: 584 x 599 km, 98.0° (Epoch: 18 August)

Event Time Altitude Azimuth Distance (km) Brightness Sun altitude
Rises 07:55:10 0° 35° (NE) 2,853 ? -22.7°
Reaches altitude 10° 07:58:50 10° 69° (ENE) 1,946 ? -22.6°
Maximum altitude 08:00:19 12° 90° (E) 1,838 ? -22.5°
Drops below altitude 10° 08:01:49 10° 110° (ESE) 1,942 ? -22.4°
Enters shadow 08:01:51 10° 111° (ESE) 1,948 ? -22.4°
